Location: Newark
(34.1333°N, 7.9667°W)
Time: 14:50:45
(UTC+00:00)

JUGNU - Pass Details

Date: 14 June 2023
Orbit: 835 x 862 km, 20.0° (Epoch: 22 September)

Event Time Altitude Azimuth Distance (km) Brightness Sun altitude
Rises 20:31:22 0° 231° (SW) 3,415 ? -9.0°
Reaches altitude 10° 20:34:47 10° 212° (SSW) 2,475 ? -9.5°
Maximum altitude 20:38:35 17° 172° (S) 1,993 ? -10.2°
Enters shadow 20:41:24 13° 140° (SE) 2,265 ? -10.6°
